EW3919 Weather Reports


time (UTC)temp
C
wind
direction
speed
KPH
gust
KPH
rain 1hr
cm
rain 24hr
cm
rain mn
cm
humidity
%
barometer
mb
20260506132517 18 0.0 0.0 0.00 0.00 0.00 83 1016.7
20260506132016 18 0.0 0.0 0.00 0.00 0.00 83 1016.7
20260506131516 18 0.0 1.6 0.00 0.00 0.00 83 1016.6
20260506131016 18 0.0 4.8 0.00 0.00 0.00 83 1016.7
20260506130536 18 0.0 0.0 0.00 0.00 0.00 83 1016.6
20260506130016 18 0.0 0.0 0.00 0.00 0.00 83 1016.5
20260506125516 18 0.0 0.0 0.00 0.00 0.00 84 1016.5
20260506125016 18 0.0 0.0 0.00 0.00 0.00 83 1016.4
20260506124516 18 0.0 0.0 0.00 0.00 0.00 83 1016.4
20260506124016 18 0.0 0.0 0.00 0.00 0.00 83 1016.3
20260506123536 18 0.0 0.0 0.00 0.00 0.00 84 1016.3
20260506123016 18 0.0 0.0 0.00 0.00 0.00 83 1016.1
20260506122516 18 0.0 1.6 0.00 0.00 0.00 83 1016.0
20260506122016 18 0.0 0.0 0.00 0.00 0.00 83 1016.1
20260506121516 18 0.0 0.0 0.00 0.00 0.00 83 1016.1
20260506121056 17 0.0 4.8 0.00 0.00 0.00 84 1016.2
20260506120516 17 0.0 0.0 0.00 0.00 0.00 83 1016.1
20260506120016 17 0.0 1.6 0.00 0.00 0.00 84 1015.9
20260506115536 17 0.0 1.6 0.00 0.00 0.00 84 1015.9
20260506115016 17 0.0 0.0 0.00 0.00 0.00 83 1016.1
20260506114516 17 0.0 0.0 0.00 0.00 0.00 84 1015.9
20260506114016 17 0.0 0.0 0.00 0.00 0.00 84 1015.7
20260506113516 17 0.0 0.0 0.00 0.00 0.00 84 1015.8
20260506113036 17 0.0 0.0 0.00 0.00 0.00 84 1015.7
20260506112516 17 0.0 0.0 0.00 0.00 0.00 83 1015.6
20260506112016 17 0.0 0.0 0.00 0.00 0.00 83 1015.4
20260506111516 17 0.0 0.0 0.00 0.00 0.00 83 1015.3
20260506111016 17 0.0 1.6 0.00 0.00 0.00 83 1015.1
20260506110515 17 0.0 0.0 0.00 0.00 0.00 83 1015.1
20260506110016 17 0.0 0.0 0.00 0.00 0.00 83 1015.0
20260506105516 17 0.0 0.0 0.00 0.00 0.00 83 1014.9
20260506105016 17 0.0 0.0 0.00 0.00 0.00 83 1014.7
20260506104516 17 0.0 4.8 0.00 0.00 0.00 82 1014.5
20260506104016 17 0.0 0.0 0.00 0.00 0.00 82 1014.7
20260506103556 17 0.0 0.0 0.00 0.00 0.00 82 1014.7
20260506103016 17 0.0 0.0 0.00 0.00 0.00 82 1014.8
20260506102518 17 0.0 0.0 0.00 0.00 0.00 82 1014.8
20260506102016 17 0.0 0.0 0.00 0.00 0.00 82 1014.8
20260506101516 17 0.0 1.6 0.00 0.00 0.00 81 1014.8
20260506101015 17 0.0 0.0 0.00 0.00 0.00 81 1014.7
20260506100516 17 0.0 0.0 0.00 0.00 0.00 81 1014.7
20260506100016 17 0.0 0.0 0.00 0.00 0.00 81 1014.6
20260506095536 17 0.0 0.0 0.00 0.00 0.00 81 1014.6
20260506095016 17 0.0 0.0 0.00 0.00 0.00 80 1014.6
20260506094516 17 0.0 0.0 0.00 0.00 0.00 80 1014.7
20260506094016 17 0.0 1.6 0.00 0.00 0.00 80 1014.7
20260506093516 17 0.0 1.6 0.00 0.00 0.00 79 1014.6
20260506093015 17 0.0 0.0 0.00 0.00 0.00 79 1014.6
20260506092535 17 0.0 0.0 0.00 0.00 0.00 79 1014.6
20260506092016 17 0.0 0.0 0.00 0.00 0.00 79 1014.8
20260506091516 18 0.0 0.0 0.00 0.00 0.00 79 1014.8
20260506091015 18 0.0 0.0 0.00 0.00 0.00 78 1014.8
20260506090515 18 0.0 0.0 0.00 0.00 0.00 78 1014.8
20260506090016 18 0.0 0.0 0.00 0.00 0.00 78 1014.8
20260506085516 18 0.0 3.2 0.00 0.00 0.00 78 1014.8
20260506085017 18 0.0 0.0 0.00 0.00 0.00 78 1014.9
20260506084518 18 0.0 0.0 0.00 0.00 0.00 78 1015.0
20260506084038 18 0.0 0.0 0.00 0.00 0.00 78 1015.1
20260506083518 18 0.0 0.0 0.00 0.00 0.00 78 1015.1
20260506083017 18 0.0 0.0 0.00 0.00 0.00 78 1015.2
20260506082518 18 0.0 0.0 0.00 0.00 0.00 78 1015.3
20260506082017 18 0.0 0.0 0.00 0.00 0.00 77 1015.3
20260506081537 18 0.0 0.0 0.00 0.00 0.00 77 1015.3
20260506081017 18 0.0 0.0 0.00 0.00 0.00 77 1015.4
20260506080518 18 0.0 0.0 0.00 0.00 0.00 77 1015.4
20260506073517 18 0.0 0.0 0.00 0.00 0.00 76 1015.4
20260506073017 18 0.0 0.0 0.00 0.00 0.00 76 1015.4
20260506072517 18 0.0 0.0 0.00 0.00 0.00 76 1015.5
20260506072017 18 0.0 0.0 0.00 0.00 0.00 76 1015.4
20260506071537 18 0.0 0.0 0.00 0.00 0.00 76 1015.4
20260506071038 18 0.0 0.0 0.00 0.00 0.00 76 1015.4
20260506070517 18 0.0 3.2 0.00 0.00 0.00 75 1015.3
20260506062517 18 0.0 0.0 0.00 0.00 0.00 75 1014.9
20260506062017 18 0.0 3.2 0.00 0.00 0.00 74 1015.0
20260506061517 18 0.0 4.8 0.00 0.00 0.00 74 1014.9
20260506061017 18 0.0 0.0 0.00 0.00 0.00 74 1015.0
20260506060517 18 0.0 8.0 0.00 0.00 0.00 74 1015.0
20260506051017 17 0.0 0.0 0.00 0.00 0.00 74 1015.1
20260506050537 16 0.0 0.0 0.00 0.00 0.00 75 1014.9
20260506045017 16 0.0 0.0 0.00 0.00 0.00 74 1015.2
20260506044537 16 0.0 0.0 0.00 0.00 0.00 73 1015.3
20260506044017 16 0.0 0.0 0.00 0.00 0.00 73 1015.5
20260506043517 17 0.0 0.0 0.00 0.00 0.00 73 1015.4
20260506043017 17 0.0 0.0 0.00 0.00 0.00 73 1015.3
20260506042538 17 0.0 0.0 0.00 0.00 0.00 72 1015.3
20260506042017 17 0.0 0.0 0.00 0.00 0.00 72 1015.3
20260506041537 17 0.0 0.0 0.00 0.00 0.00 72 1015.3
20260506041017 17 0.0 0.0 0.00 0.00 0.00 72 1015.2
20260506040517 17 0.0 0.0 0.00 0.00 0.00 71 1015.1
20260506040017 17 0.0 0.0 0.00 0.00 0.00 71 1015.2
20260506035537 17 0.0 0.0 0.00 0.00 0.00 71 1015.3
20260506035016 17 0.0 0.0 0.00 0.00 0.00 70 1015.2
20260506034517 17 0.0 0.0 0.00 0.00 0.00 70 1015.1
20260506034016 17 0.0 0.0 0.00 0.00 0.00 70 1015.1
20260506033517 18 0.0 0.0 0.00 0.00 0.00 70 1015.1
20260506033016 18 0.0 0.0 0.00 0.00 0.00 69 1015.1
20260506032516 18 0.0 0.0 0.00 0.00 0.00 69 1015.1
20260506032016 18 0.0 0.0 0.00 0.00 0.00 68 1015.2
20260506031516 18 0.0 0.0 0.00 0.00 0.00 67 1015.2
20260506031016 18 0.0 0.0 0.00 0.00 0.00 67 1015.2
20260506030516 18 0.0 0.0 0.00 0.00 0.00 66 1015.3
20260506030036 19 0.0 0.0 0.00 0.00 0.00 65 1015.3
20260506025516 19 0.0 0.0 0.00 0.00 0.00 64 1015.4
20260506025016 19 0.0 0.0 0.00 0.00 0.00 64 1015.2
20260506024516 20 0.0 0.0 0.00 0.00 0.00 63 1015.2
20260506024016 20 0.0 0.0 0.00 0.00 0.00 62 1015.2
20260506023516 20 0.0 0.0 0.00 0.00 0.00 62 1015.4
20260506023017 20 0.0 0.0 0.00 0.00 0.00 61 1015.4
20260506022537 20 0.0 0.0 0.00 0.00 0.00 61 1015.3
20260506022016 20 0.0 0.0 0.00 0.00 0.00 61 1015.1
20260506021516 20 0.0 0.0 0.00 0.00 0.00 61 1015.1
20260506021017 21 0.0 0.0 0.00 0.00 0.00 60 1015.0
20260506020516 21 0.0 0.0 0.00 0.00 0.00 60 1014.9
20260506020016 21 0.0 0.0 0.00 0.00 0.00 59 1014.9
20260506015516 21 0.0 0.0 0.00 0.00 0.00 59 1014.9
20260506015016 21 0.0 0.0 0.00 0.00 0.00 59 1014.8
20260506014516 21 0.0 0.0 0.00 0.00 0.00 59 1014.7
20260506014016 21 0.0 0.0 0.00 0.00 0.00 59 1014.7
20260506013516 21 0.0 0.0 0.00 0.00 0.00 59 1014.8
20260506013037 21 0.0 0.0 0.00 0.00 0.00 58 1014.9
20260506012536 21 0.0 0.0 0.00 0.00 0.00 57 1014.8
20260506012016 21 0.0 0.0 0.00 0.00 0.00 56 1014.7
20260506011516 22 0.0 0.0 0.00 0.00 0.00 55 1014.7
20260506011037 22 0.0 0.0 0.00 0.00 0.00 54 1014.7
20260506010537 22 0.0 0.0 0.00 0.00 0.00 53 1014.6
20260506010036 23 0.0 0.0 0.00 0.00 0.00 52 1014.7
20260506005516 23 0.0 0.0 0.00 0.00 0.00 51 1014.8
20260506005016 23 0.0 0.0 0.00 0.00 0.00 51 1014.7
20260506004557 23 0.0 0.0 0.00 0.00 0.00 49 1014.6
20260506004036 24 0.0 0.0 0.00 0.00 0.00 49 1014.6
20260506003516 24 0.0 0.0 0.00 0.00 0.00 49 1014.7
20260506003036 25 0.0 0.0 0.00 0.00 0.00 48 1014.6
20260506002516 25 0.0 0.0 0.00 0.00 0.00 48 1014.7
20260506002016 25 0.0 0.0 0.00 0.00 0.00 48 1014.6
20260506001516 25 0.0 0.0 0.00 0.00 0.00 47 1014.4
20260506001016 25 0.0 0.0 0.00 0.00 0.00 46 1014.3
20260506000536 25 0.0 0.0 0.00 0.00 0.00 46 1014.2
20260506000016 25 0.0 0.0 0.00 0.00 0.00 46 1014.2
20260505235516 26 0.0 0.0 0.00 0.00 0.00 44 1014.2
20260505235016 26 0.0 0.0 0.00 0.00 0.00 45 1014.0
20260505234516 26 0.0 6.4 0.00 0.00 0.00 44 1013.9
20260505234036 26 0.0 0.0 0.00 0.00 0.00 43 1013.9
20260505233516 26 180 1.6 11.3 0.00 0.00 0.00 44 1013.9
20260505233016 26 0.0 1.6 0.00 0.00 0.00 43 1013.9
20260505232516 26 0.0 0.0 0.00 0.00 0.00 44 1013.8
20260505232017 26 0.0 0.0 0.00 0.00 0.00 43 1014.0
20260505231516 26 0.0 0.0 0.00 0.00 0.00 44 1013.9
20260505231016 26 0.0 0.0 0.00 0.00 0.00 43 1013.9
20260505230516 26 0.0 0.0 0.00 0.00 0.00 42 1013.9
20260505230016 27 0.0 0.0 0.00 0.00 0.00 42 1013.9
20260505225516 27 0.0 0.0 0.00 0.00 0.00 42 1013.9
20260505225016 27 0.0 0.0 0.00 0.00 0.00 42 1013.8
20260505224536 27 135 1.6 11.3 0.00 0.00 0.00 41 1013.7
20260505224015 27 135 1.6 12.9 0.00 0.00 0.00 41 1013.7
20260505223536 27 203 1.6 8.0 0.00 0.00 0.00 40 1013.9
20260505223016 27 203 1.6 16.1 0.00 0.00 0.00 41 1014.1
20260505222515 27 225 1.6 12.9 0.00 0.00 0.00 41 1014.0
20260505222015 27 203 1.6 12.9 0.00 0.00 0.00 40 1013.8
20260505221516 27 0.0 1.6 0.00 0.00 0.00 41 1013.9
20260505221036 27 0.0 0.0 0.00 0.00 0.00 41 1014.0
20260505220536 28 0.0 0.0 0.00 0.00 0.00 41 1014.0
20260505220016 28 113 3.2 19.3 0.00 0.00 0.00 41 1014.2
20260505215515 28 0.0 11.3 0.00 0.00 0.00 41 1014.2
20260505215015 27 225 1.6 19.3 0.00 0.00 0.00 41 1014.2
20260505214516 27 0.0 8.0 0.00 0.00 0.00 41 1014.3
20260505214015 27 203 1.6 12.9 0.00 0.00 0.00 41 1014.2
20260505213515 27 203 3.2 14.5 0.00 0.00 0.00 41 1014.3
20260505213018 27 203 1.6 16.1 0.00 0.00 0.00 41 1014.4
20260505212518 28 225 3.2 19.3 0.00 0.00 0.00 40 1014.4
20260505212037 28 0.0 1.6 0.00 0.00 0.00 41 1014.3
20260505211518 28 203 1.6 9.7 0.00 0.00 0.00 42 1014.4
20260505211038 27 203 1.6 16.1 0.00 0.00 0.00 42 1014.4
20260505210518 28 90 1.6 14.5 0.00 0.00 0.00 42 1014.3
20260505210017 27 203 1.6 9.7 0.00 0.00 0.00 43 1014.4
20260505205518 27 0.0 11.3 0.00 0.00 0.00 43 1014.5
20260505205017 27 0.0 11.3 0.00 0.00 0.00 44 1014.5
20260505204517 27 203 1.6 9.7 0.00 0.00 0.00 44 1014.6
20260505204017 27 135 1.6 14.5 0.00 0.00 0.00 44 1014.7
20260505203517 27 0.0 1.6 0.00 0.00 0.00 44 1014.8
20260505203018 27 203 1.6 9.7 0.00 0.00 0.00 43 1014.8
20260505202518 27 225 3.2 24.1 0.00 0.00 0.00 43 1014.9
20260505202038 27 0.0 9.7 0.00 0.00 0.00 43 1014.8
20260505201537 27 225 1.6 24.1 0.00 0.00 0.00 46 1014.8
20260505201017 27 225 1.6 11.3 0.00 0.00 0.00 45 1014.8
20260505200518 27 225 3.2 17.7 0.00 0.00 0.00 45 1015.0
20260505200037 27 203 3.2 24.1 0.00 0.00 0.00 45 1015.0
20260505195517 27 0.0 6.4 0.00 0.00 0.00 45 1015.2
20260505195017 27 0.0 9.7 0.00 0.00 0.00 45 1015.2
20260505194518 27 158 1.6 8.0 0.00 0.00 0.00 44 1015.4
20260505194017 27 0.0 4.8 0.00 0.00 0.00 45 1015.4
20260505193517 27 90 1.6 12.9 0.00 0.00 0.00 44 1015.4
20260505193018 27 0.0 8.0 0.00 0.00 0.00 46 1015.5
20260505192518 27 203 3.2 19.3 0.00 0.00 0.00 46 1015.6
20260505192058 27 225 1.6 24.1 0.00 0.00 0.00 45 1015.8
20260505191517 27 203 1.6 9.7 0.00 0.00 0.00 47 1015.8
20260505191017 27 203 1.6 12.9 0.00 0.00 0.00 45 1015.8
20260505190517 27 180 1.6 20.9 0.00 0.00 0.00 47 1016.0
20260505190017 27 203 1.6 12.9 0.00 0.00 0.00 46 1016.0
20260505185517 27 0.0 14.5 0.00 0.00 0.00 46 1016.0
20260505185017 27 225 1.6 16.1 0.00 0.00 0.00 50 1016.1
20260505184517 27 225 3.2 24.1 0.00 0.00 0.00 47 1016.2
20260505184017 27 0.0 17.7 0.00 0.00 0.00 45 1016.3
20260505183517 27 0.0 0.0 0.00 0.00 0.00 48 1016.4
20260505183017 27 113 3.2 17.7 0.00 0.00 0.00 46 1016.5
20260505182517 27 113 1.6 9.7 0.00 0.00 0.00 49 1016.6
20260505182017 26 0.0 0.0 0.00 0.00 0.00 48 1016.6
20260505181537 26 0.0 0.0 0.00 0.00 0.00 46 1016.7
20260505181037 26 203 3.2 30.6 0.00 0.00 0.00 49 1016.7
20260505180517 26 0.0 0.0 0.00 0.00 0.00 49 1016.7
20260505180017 26 203 1.6 9.7 0.00 0.00 0.00 49 1016.9
20260505175517 26 0.0 9.7 0.00 0.00 0.00 48 1017.0
20260505175017 26 0.0 8.0 0.00 0.00 0.00 50 1016.7
20260505174517 26 0.0 0.0 0.00 0.00 0.00 51 1016.7
20260505174017 26 0.0 8.0 0.00 0.00 0.00 50 1016.8
20260505173517 26 0.0 0.0 0.00 0.00 0.00 50 1016.8
20260505173017 26 0.0 9.7 0.00 0.00 0.00 52 1016.9
20260505172537 26 90 3.2 19.3 0.00 0.00 0.00 53 1016.9
20260505172037 26 0.0 6.4 0.00 0.00 0.00 52 1016.9
20260505171517 26 90 1.6 16.1 0.00 0.00 0.00 52 1017.1
20260505171017 26 0.0 0.0 0.00 0.00 0.00 55 1017.0
20260505170517 25 135 1.6 16.1 0.00 0.00 0.00 54 1017.0
20260505170017 25 0.0 11.3 0.00 0.00 0.00 56 1017.2
20260505165537 25 0.0 11.3 0.00 0.00 0.00 54 1017.3
20260505165017 25 0.0 6.4 0.00 0.00 0.00 54 1017.4
20260505164537 25 203 1.6 8.0 0.00 0.00 0.00 55 1017.4
20260505164016 25 225 1.6 19.3 0.00 0.00 0.00 55 1017.5
20260505163517 25 0.0 0.0 0.00 0.00 0.00 56 1017.6
20260505163017 25 0.0 0.0 0.00 0.00 0.00 57 1017.6
20260505162517 24 0.0 0.0 0.00 0.00 0.00 59 1017.5
20260505162017 23 0.0 0.0 0.00 0.00 0.00 60 1017.6
20260505161517 23 203 3.2 19.3 0.00 0.00 0.00 59 1017.6
20260505161017 23 203 1.6 11.3 0.00 0.00 0.00 63 1017.6
20260505160517 23 0.0 0.0 0.00 0.00 0.00 61 1017.5
20260505153017 23 0.0 0.0 0.00 0.00 0.00 62 1017.9
20260505152517 23 0.0 8.0 0.00 0.00 0.00 62 1017.9
20260505152037 23 0.0 3.2 0.00 0.00 0.00 63 1017.9
20260505151517 22 0.0 0.0 0.00 0.00 0.00 63 1018.0
20260505151017 22 0.0 12.9 0.00 0.00 0.00 62 1017.9
20260505150517 22 0.0 0.0 0.00 0.00 0.00 61 1018.0
20260505140517 19 0.0 0.0 0.00 0.00 0.00 76 1017.6